"Period start","avg(HW err(1)/warn(2) (#))","avg(Visibility (m))","avg(Weather code (#))","avg(Precip intensity (mm/h))","min(HW err(1)/warn(2) (#))","max(HW err(1)/warn(2) (#))","std(HW err(1)/warn(2) (#))","med(HW err(1)/warn(2) (#))","min(Visibility (m))","max(Visibility (m))","std(Visibility (m))","med(Visibility (m))","min(Weather code (#))","max(Weather code (#))","std(Weather code (#))","med(Weather code (#))","min(Precip intensity (mm/h))","max(Precip intensity (mm/h))","std(Precip intensity (mm/h))","med(Precip intensity (mm/h))"
2016-04-28 00:00:00,2,22746,71,0.01,2,2,0,2,13859,32570,5669,23127,71,71,0,71,0.00,0.10,0.03,0.00
2016-04-28 00:10:00,2,18938,71,0.03,2,2,0,2,12467,32203,5010,18743,71,71,0,71,0.00,0.10,0.03,0.00
2016-04-28 00:20:00,2,13127,75,0.10,2,2,0,2,8391,19442,3712,13624,71,77,3,77,0.00,0.35,0.13,0.05
2016-04-28 00:30:00,2,7262,71,0.30,2,2,0,2,3329,13302,3020,6040,71,71,0,71,0.05,0.65,0.22,0.23
2016-04-28 00:40:00,2,12464,71,0.09,2,2,0,2,7199,22795,4511,11414,71,71,0,71,0.00,0.30,0.08,0.08
2016-04-28 00:50:00,2,12718,71,0.12,2,2,0,2,6933,23705,4624,11554,71,71,0,71,0.00,0.45,0.14,0.08
2016-04-28 01:00:00,2,10640,71,0.21,2,2,0,2,4916,15357,3695,12074,71,71,0,71,0.00,0.35,0.11,0.23
2016-04-28 01:10:00,2,15418,71,0.16,2,2,0,2,9028,21465,4219,16154,71,71,0,71,0.00,0.40,0.13,0.15
2016-04-28 01:20:00,2,12618,71,0.14,2,2,0,2,7395,19318,3859,11376,71,71,0,71,0.00,0.40,0.13,0.08
2016-04-28 01:30:00,2,7342,71,0.45,2,2,0,2,2731,14291,2992,6543,71,71,0,71,0.00,1.50,0.40,0.40
2016-04-28 01:40:00,2,9136,71,0.23,2,2,0,2,5287,14253,2942,8724,71,71,0,71,0.00,0.85,0.25,0.17
2016-04-28 01:50:00,2,9016,71,0.35,2,2,0,2,3246,17100,4480,7774,71,71,0,71,0.00,1.25,0.40,0.17
2016-04-28 02:00:00,2,16746,71,0.12,2,2,0,2,6324,27887,7104,14412,71,71,0,71,0.00,0.35,0.12,0.05
2016-04-28 02:10:00,2,24332,71,0.03,2,2,0,2,10300,45663,10249,24821,71,71,0,71,0.00,0.15,0.05,0.00
2016-04-28 02:20:00,2,18791,71,0.16,2,2,0,2,7202,31324,8129,17894,71,71,0,71,0.00,0.50,0.16,0.08
2016-04-28 02:30:00,2,15876,71,0.14,2,2,0,2,4460,27480,7343,15959,71,71,0,71,0.00,0.35,0.10,0.12
2016-04-28 02:40:00,2,15306,71,0.17,2,2,0,2,10950,21658,3064,14894,71,71,0,71,0.00,0.60,0.20,0.10
2016-04-28 02:50:00,2,20205,71,0.08,2,2,0,2,13054,30316,6317,18628,71,71,0,71,0.00,0.25,0.10,0.03
2016-04-28 03:00:00,2,19603,73,0.07,2,2,0,2,8343,27801,5864,19537,71,77,3,71,0.00,0.40,0.12,0.03
2016-04-28 03:10:00,2,12333,71,0.19,2,2,0,2,7461,22158,5058,10709,71,71,0,71,0.00,0.40,0.12,0.17
2016-04-28 03:20:00,2,14851,71,0.04,2,2,0,2,9231,21795,3861,14271,71,71,0,71,0.00,0.25,0.08,0.00
2016-04-28 03:30:00,2,21845,73,0.02,2,2,0,2,13178,47256,11642,16300,71,77,3,71,0.00,0.15,0.05,0.00
2016-04-28 03:40:00,2,30488,45,0.01,2,2,0,2,23072,38450,5133,29489,0,77,37,71,0.00,0.05,0.02,0.00
2016-04-28 03:50:00,2,23067,0,0.00,2,2,0,2,11904,32847,5894,22991,0,0,0,0,0.00,0.00,0.00,0.00
2016-04-28 04:00:00,2,21892,0,0.00,2,2,0,2,14981,31139,4902,20908,0,0,0,0,0.00,0.00,0.00,0.00
2016-04-28 04:10:00,2,27506,20,0.01,2,2,0,2,18342,50000,9117,24106,0,41,20,20,0.00,0.05,0.02,0.00
2016-04-28 04:20:00,2,25607,15,0.02,2,2,0,2,10549,40278,9607,24696,0,71,24,0,0.00,0.10,0.03,0.00
2016-04-28 04:30:00,2,32656,71,0.02,2,2,0,2,16853,48813,8928,32328,71,71,0,71,0.00,0.05,0.02,0.00
2016-04-28 04:40:00,2,16734,71,0.06,2,2,0,2,11617,25682,4128,16541,71,71,0,71,0.00,0.15,0.05,0.05
2016-04-28 04:50:00,2,24202,21,0.01,2,2,0,2,13758,33070,6063,23820,0,71,33,0,0.00,0.05,0.02,0.00
2016-04-28 05:00:00,2,36688,0,0.00,2,2,0,2,31297,43229,3553,36596,0,0,0,0,0.00,0.00,0.00,0.00
2016-04-28 05:10:00,2,41576,0,0.00,2,2,0,2,27548,50000,8221,42856,0,0,0,0,0.00,0.00,0.00,0.00
2016-04-28 05:20:00,2,39096,0,0.00,2,2,0,2,27860,50000,8106,37910,0,0,0,0,0.00,0.00,0.00,0.00
2016-04-28 05:30:00,2,40330,0,0.00,2,2,0,2,28385,50000,6725,40453,0,0,0,0,0.00,0.00,0.00,0.00
2016-04-28 05:40:00,2,41393,0,0.00,2,2,0,2,33360,50000,5996,41985,0,0,0,0,0.00,0.00,0.00,0.00
2016-04-28 05:50:00,2,47162,0,0.00,2,2,0,2,39101,50000,3458,48824,0,0,0,0,0.00,0.00,0.00,0.00
2016-04-28 06:00:00,2,47470,0,0.00,2,2,0,2,43761,50000,2551,48340,0,0,0,0,0.00,0.00,0.00,0.00
2016-04-28 06:10:00,2,48224,0,0.00,2,2,0,2,43412,50000,2063,49030,0,0,0,0,0.00,0.00,0.00,0.00
2016-04-28 06:20:00,2,40687,0,0.00,2,2,0,2,26699,50000,6845,42186,0,0,0,0,0.00,0.00,0.00,0.00
2016-04-28 06:30:00,2,42351,0,0.00,2,2,0,2,33483,50000,5903,43346,0,0,0,0,0.00,0.00,0.00,0.00
2016-04-28 06:40:00,2,40109,0,0.00,2,2,0,2,24890,50000,7871,40438,0,0,0,0,0.00,0.00,0.00,0.00
2016-04-28 06:50:00,2,42124,0,0.00,2,2,0,2,25670,50000,7099,44874,0,0,0,0,0.00,0.00,0.00,0.00
2016-04-28 07:00:00,2,40038,0,0.00,2,2,0,2,29259,50000,6104,39542,0,0,0,0,0.00,0.00,0.00,0.00
2016-04-28 07:10:00,2,43811,0,0.00,2,2,0,2,32727,50000,6397,45167,0,0,0,0,0.00,0.00,0.00,0.00
2016-04-28 07:20:00,2,45568,0,0.00,2,2,0,2,35249,50000,4074,46390,0,0,0,0,0.00,0.00,0.00,0.00
2016-04-28 07:30:00,2,41424,0,0.00,2,2,0,2,29630,50000,7023,41642,0,0,0,0,0.00,0.00,0.00,0.00
2016-04-28 07:40:00,2,49336,0,0.00,2,2,0,2,46756,50000,1207,50000,0,0,0,0,0.00,0.00,0.00,0.00
2016-04-28 07:50:00,2,44737,0,0.00,2,2,0,2,37585,50000,4806,44366,0,0,0,0,0.00,0.00,0.00,0.00
2016-04-28 08:00:00,2,45142,0,0.00,2,2,0,2,36758,50000,3909,46254,0,0,0,0,0.00,0.00,0.00,0.00
2016-04-28 08:10:00,2,46469,0,0.00,2,2,0,2,30448,50000,6066,50000,0,0,0,0,0.00,0.00,0.00,0.00
2016-04-28 08:20:00,2,41615,0,0.00,2,2,0,2,32580,50000,6527,40846,0,0,0,0,0.00,0.00,0.00,0.00
2016-04-28 08:30:00,2,43207,0,0.00,2,2,0,2,29625,50000,6206,43973,0,0,0,0,0.00,0.00,0.00,0.00
2016-04-28 08:40:00,2,43835,0,0.00,2,2,0,2,36590,49391,4521,45305,0,0,0,0,0.00,0.00,0.00,0.00
2016-04-28 08:50:00,2,43419,0,0.00,2,2,0,2,34400,50000,4853,43430,0,0,0,0,0.00,0.00,0.00,0.00
2016-04-28 09:00:00,2,45661,0,0.00,2,2,0,2,39954,50000,3680,47062,0,0,0,0,0.00,0.00,0.00,0.00
2016-04-28 09:10:00,2,42732,0,0.00,2,2,0,2,34093,50000,5693,41300,0,0,0,0,0.00,0.00,0.00,0.00
2016-04-28 09:20:00,2,45583,0,0.00,2,2,0,2,31991,50000,6243,48999,0,0,0,0,0.00,0.00,0.00,0.00
2016-04-28 09:30:00,2,49127,0,0.00,2,2,0,2,45484,50000,1545,50000,0,0,0,0,0.00,0.00,0.00,0.00
2016-04-28 09:40:00,2,47904,0,0.00,2,2,0,2,42615,50000,2599,49630,0,0,0,0,0.00,0.00,0.00,0.00
2016-04-28 09:50:00,2,49701,0,0.00,2,2,0,2,47128,50000,858,50000,0,0,0,0,0.00,0.00,0.00,0.00
2016-04-28 10:00:00,2,49414,0,0.00,2,2,0,2,44138,50000,1759,50000,0,0,0,0,0.00,0.00,0.00,0.00
2016-04-28 10:10:00,2,47841,0,0.00,2,2,0,2,44842,50000,1929,47458,0,0,0,0,0.00,0.00,0.00,0.00
2016-04-28 10:20:00,2,49363,0,0.00,2,2,0,2,46491,50000,1282,50000,0,0,0,0,0.00,0.00,0.00,0.00
2016-04-28 10:30:00,2,49490,0,0.00,2,2,0,2,46563,50000,1038,50000,0,0,0,0,0.00,0.00,0.00,0.00
2016-04-28 10:40:00,2,49359,0,0.00,2,2,0,2,44140,50000,1747,50000,0,0,0,0,0.00,0.00,0.00,0.00
2016-04-28 10:50:00,2,49849,0,0.00,2,2,0,2,48491,50000,453,50000,0,0,0,0,0.00,0.00,0.00,0.00
2016-04-28 11:00:00,2,49569,0,0.00,2,2,0,2,46724,50000,997,50000,0,0,0,0,0.00,0.00,0.00,0.00
2016-04-28 11:10:00,2,49824,0,0.00,2,2,0,2,48236,50000,529,50000,0,0,0,0,0.00,0.00,0.00,0.00
2016-04-28 11:20:00,2,49932,0,0.00,2,2,0,2,49324,50000,203,50000,0,0,0,0,0.00,0.00,0.00,0.00
2016-04-28 11:30:00,2,50000,0,0.00,2,2,0,2,50000,50000,0,50000,0,0,0,0,0.00,0.00,0.00,0.00
2016-04-28 11:40:00,2,50000,0,0.00,2,2,0,2,50000,50000,0,50000,0,0,0,0,0.00,0.00,0.00,0.00
2016-04-28 11:50:00,2,49820,0,0.00,2,2,0,2,48202,50000,539,50000,0,0,0,0,0.00,0.00,0.00,0.00
2016-04-28 12:00:00,2,49917,0,0.00,2,2,0,2,49169,50000,249,50000,0,0,0,0,0.00,0.00,0.00,0.00
2016-04-28 12:10:00,2,50000,0,0.00,2,2,0,2,50000,50000,0,50000,0,0,0,0,0.00,0.00,0.00,0.00
2016-04-28 12:20:00,2,50000,0,0.00,2,2,0,2,50000,50000,0,50000,0,0,0,0,0.00,0.00,0.00,0.00
2016-04-28 12:30:00,2,44068,0,0.00,2,2,0,2,28933,50000,7522,47238,0,0,0,0,0.00,0.00,0.00,0.00
2016-04-28 12:40:00,2,22664,53,0.06,2,2,0,2,8453,49345,15316,16940,0,78,35,74,0.00,0.20,0.07,0.03
2016-04-28 12:50:00,2,10599,76,0.08,2,2,0,2,8395,12467,1267,10898,71,78,3,77,0.00,0.20,0.06,0.08
2016-04-28 13:00:00,2,21317,78,0.00,2,2,0,2,12194,37219,7270,20107,77,78,0,78,0.00,0.00,0.00,0.00
2016-04-28 13:10:00,2,40434,23,0.00,2,2,0,2,33088,48951,5332,41034,0,78,36,0,0.00,0.00,0.00,0.00
2016-04-28 13:20:00,2,44796,0,0.00,2,2,0,2,39743,49554,2891,44514,0,0,0,0,0.00,0.00,0.00,0.00
2016-04-28 13:30:00,2,47698,0,0.00,2,2,0,2,43041,50000,2512,48528,0,0,0,0,0.00,0.00,0.00,0.00
2016-04-28 13:40:00,2,45737,0,0.00,2,2,0,2,36435,50000,5286,48634,0,0,0,0,0.00,0.00,0.00,0.00
2016-04-28 13:50:00,2,49606,0,0.00,2,2,0,2,48666,50000,522,49980,0,0,0,0,0.00,0.00,0.00,0.00
2016-04-28 14:00:00,2,45873,22,0.00,2,2,0,2,34717,50000,4893,47412,0,78,34,0,0.00,0.00,0.00,0.00
2016-04-28 14:10:00,2,47284,16,0.00,2,2,0,2,37629,50000,4683,50000,0,78,31,0,0.00,0.00,0.00,0.00
2016-04-28 14:20:00,2,49481,0,0.00,2,2,0,2,46078,50000,1171,50000,0,0,0,0,0.00,0.00,0.00,0.00
2016-04-28 14:30:00,2,49466,0,0.00,2,2,0,2,47449,50000,996,50000,0,0,0,0,0.00,0.00,0.00,0.00
2016-04-28 14:40:00,2,49547,0,0.00,2,2,0,2,46331,50000,1102,50000,0,0,0,0,0.00,0.00,0.00,0.00
2016-04-28 14:50:00,2,49701,0,0.00,2,2,0,2,47013,50000,896,50000,0,0,0,0,0.00,0.00,0.00,0.00
2016-04-28 15:00:00,2,50000,0,0.00,2,2,0,2,50000,50000,0,50000,0,0,0,0,0.00,0.00,0.00,0.00
2016-04-28 15:10:00,2,50000,0,0.00,2,2,0,2,50000,50000,0,50000,0,0,0,0,0.00,0.00,0.00,0.00
2016-04-28 15:20:00,2,50000,0,0.00,2,2,0,2,50000,50000,0,50000,0,0,0,0,0.00,0.00,0.00,0.00
2016-04-28 15:30:00,2,50000,0,0.00,2,2,0,2,50000,50000,0,50000,0,0,0,0,0.00,0.00,0.00,0.00
2016-04-28 15:40:00,2,50000,0,0.00,2,2,0,2,50000,50000,0,50000,0,0,0,0,0.00,0.00,0.00,0.00
2016-04-28 15:50:00,2,50000,0,0.00,2,2,0,2,50000,50000,0,50000,0,0,0,0,0.00,0.00,0.00,0.00
2016-04-28 16:00:00,2,50000,0,0.00,2,2,0,2,50000,50000,0,50000,0,0,0,0,0.00,0.00,0.00,0.00
2016-04-28 16:10:00,2,49990,0,0.00,2,2,0,2,49913,50000,26,50000,0,0,0,0,0.00,0.00,0.00,0.00
2016-04-28 16:20:00,2,50000,0,0.00,2,2,0,2,50000,50000,0,50000,0,0,0,0,0.00,0.00,0.00,0.00
2016-04-28 16:30:00,2,50000,0,0.00,2,2,0,2,50000,50000,0,50000,0,0,0,0,0.00,0.00,0.00,0.00
2016-04-28 16:40:00,2,50000,0,0.00,2,2,0,2,50000,50000,0,50000,0,0,0,0,0.00,0.00,0.00,0.00
2016-04-28 16:50:00,2,45771,30,0.00,2,2,0,2,34552,50000,6082,50000,0,78,37,0,0.00,0.00,0.00,0.00
2016-04-28 17:00:00,2,43162,8,0.00,2,2,0,2,32183,50000,7005,45664,0,78,23,0,0.00,0.00,0.00,0.00
2016-04-28 17:10:00,2,49108,0,0.00,2,2,0,2,43401,50000,2024,50000,0,0,0,0,0.00,0.00,0.00,0.00
2016-04-28 17:20:00,2,50000,0,0.00,2,2,0,2,50000,50000,0,50000,0,0,0,0,0.00,0.00,0.00,0.00
2016-04-28 17:30:00,2,49994,0,0.00,2,2,0,2,49938,50000,19,50000,0,0,0,0,0.00,0.00,0.00,0.00
2016-04-28 17:40:00,2,50000,0,0.00,2,2,0,2,50000,50000,0,50000,0,0,0,0,0.00,0.00,0.00,0.00
2016-04-28 17:50:00,2,49873,0,0.00,2,2,0,2,48795,50000,360,50000,0,0,0,0,0.00,0.00,0.00,0.00
2016-04-28 18:00:00,2,48580,0,0.00,2,2,0,2,43944,50000,2049,49934,0,0,0,0,0.00,0.00,0.00,0.00
2016-04-28 18:10:00,2,49794,0,0.00,2,2,0,2,47968,50000,609,50000,0,0,0,0,0.00,0.00,0.00,0.00
2016-04-28 18:20:00,2,49850,0,0.00,2,2,0,2,48954,50000,327,50000,0,0,0,0,0.00,0.00,0.00,0.00
2016-04-28 18:30:00,2,49681,0,0.00,2,2,0,2,46817,50000,955,50000,0,0,0,0,0.00,0.00,0.00,0.00
2016-04-28 18:40:00,2,49746,0,0.00,2,2,0,2,47465,50000,760,50000,0,0,0,0,0.00,0.00,0.00,0.00
2016-04-28 18:50:00,2,49707,0,0.00,2,2,0,2,48410,50000,521,50000,0,0,0,0,0.00,0.00,0.00,0.00
2016-04-28 19:00:00,2,49506,0,0.00,2,2,0,2,47037,50000,929,50000,0,0,0,0,0.00,0.00,0.00,0.00
2016-04-28 19:10:00,2,49429,0,0.00,2,2,0,2,46077,50000,1172,50000,0,0,0,0,0.00,0.00,0.00,0.00
2016-04-28 19:20:00,2,48529,0,0.00,2,2,0,2,41075,50000,2639,49778,0,0,0,0,0.00,0.00,0.00,0.00
2016-04-28 19:30:00,2,50000,0,0.00,2,2,0,2,50000,50000,0,50000,0,0,0,0,0.00,0.00,0.00,0.00
2016-04-28 19:40:00,2,49966,0,0.00,2,2,0,2,49665,50000,100,50000,0,0,0,0,0.00,0.00,0.00,0.00
2016-04-28 19:50:00,2,50000,0,0.00,2,2,0,2,50000,50000,0,50000,0,0,0,0,0.00,0.00,0.00,0.00
2016-04-28 20:00:00,2,49318,0,0.00,2,2,0,2,46707,50000,1177,50000,0,0,0,0,0.00,0.00,0.00,0.00
2016-04-28 20:10:00,2,46857,0,0.00,2,2,0,2,37734,50000,4106,49252,0,0,0,0,0.00,0.00,0.00,0.00
2016-04-28 20:20:00,2,48639,0,0.00,2,2,0,2,44530,50000,2065,50000,0,0,0,0,0.00,0.00,0.00,0.00
2016-04-28 20:30:00,2,45109,0,0.00,2,2,0,2,37253,50000,4131,46030,0,0,0,0,0.00,0.00,0.00,0.00
2016-04-28 20:40:00,2,48678,0,0.00,2,2,0,2,42900,50000,2086,49486,0,0,0,0,0.00,0.00,0.00,0.00
2016-04-28 20:50:00,2,49423,0,0.00,2,2,0,2,47423,50000,842,50000,0,0,0,0,0.00,0.00,0.00,0.00
2016-04-28 21:00:00,2,48685,0,0.00,2,2,0,2,42889,50000,2596,50000,0,0,0,0,0.00,0.00,0.00,0.00
2016-04-28 21:10:00,2,48834,0,0.00,2,2,0,2,43441,50000,2053,50000,0,0,0,0,0.00,0.00,0.00,0.00
2016-04-28 21:20:00,2,49160,0,0.00,2,2,0,2,46457,50000,1226,49826,0,0,0,0,0.00,0.00,0.00,0.00
2016-04-28 21:30:00,2,46005,0,0.00,2,2,0,2,36969,50000,4497,48098,0,0,0,0,0.00,0.00,0.00,0.00
2016-04-28 21:40:00,2,42087,0,0.00,2,2,0,2,29633,50000,7707,42698,0,0,0,0,0.00,0.00,0.00,0.00
2016-04-28 21:50:00,2,40584,0,0.00,2,2,0,2,31835,50000,7295,41288,0,0,0,0,0.00,0.00,0.00,0.00
2016-04-28 22:00:00,2,46398,0,0.00,2,2,0,2,39798,50000,4015,48471,0,0,0,0,0.00,0.00,0.00,0.00
2016-04-28 22:10:00,2,41173,0,0.00,2,2,0,2,32281,46491,4539,42800,0,0,0,0,0.00,0.00,0.00,0.00
2016-04-28 22:20:00,2,43915,0,0.00,2,2,0,2,35324,50000,5588,45278,0,0,0,0,0.00,0.00,0.00,0.00
2016-04-28 22:30:00,2,43609,0,0.00,2,2,0,2,36790,50000,5399,41335,0,0,0,0,0.00,0.00,0.00,0.00
2016-04-28 22:40:00,2,41363,0,0.00,2,2,0,2,34079,50000,4954,39842,0,0,0,0,0.00,0.00,0.00,0.00
2016-04-28 22:50:00,2,41876,0,0.00,2,2,0,2,29202,50000,6470,43102,0,0,0,0,0.00,0.00,0.00,0.00
2016-04-28 23:00:00,2,48240,0,0.00,2,2,0,2,36855,50000,3994,50000,0,0,0,0,0.00,0.00,0.00,0.00
2016-04-28 23:10:00,2,46277,0,0.00,2,2,0,2,41243,50000,3109,47152,0,0,0,0,0.00,0.00,0.00,0.00
2016-04-28 23:20:00,2,35000,0,0.00,2,2,0,2,26448,44576,6565,34892,0,0,0,0,0.00,0.00,0.00,0.00
2016-04-28 23:30:00,2,41106,0,0.00,2,2,0,2,25176,50000,7912,40778,0,0,0,0,0.00,0.00,0.00,0.00
2016-04-28 23:40:00,2,41377,0,0.00,2,2,0,2,24569,50000,9099,44003,0,0,0,0,0.00,0.00,0.00,0.00
2016-04-28 23:50:00,2,32374,0,0.00,2,2,0,2,20933,50000,10268,29288,0,0,0,0,0.00,0.00,0.00,0.00
